Location: Unspecified
(0.0000°N, 0.0000°E)
Time: 15:38:58
(UTC+00:00)

STARLINK-36959 - Pass Details

Date: 04 March 2026
Orbit: 265 x 266 km, 53.2° (Epoch: 6 March)

Event Time Altitude Azimuth Distance (km) Brightness Sun altitude
Rises 19:01:27 0° 218° (SW) 1,833 6.0 -12.4°
Reaches altitude 10° 19:03:19 10° 222° (SW) 1,034 4.8 -12.8°
Maximum altitude 19:05:34 62° 303° (WNW) 294 1.5 -13.4°
Enters shadow 19:06:54 21° 21° (NNE) 654 2.8 -13.7°
